Location: Newark
(21.1200°N, 73.4000°E)
Time: 16:20:04
(UTC+00:00)

Courier 1B Rocket - Pass Details

Date: 18 January 2020
Orbit: 920 x 1202 km, 28.2° (Epoch: 22 February)

Event Time Altitude Azimuth Distance (km) Brightness Sun altitude
Rises 14:27:20 0° 289° (WNW) 3,546 8.8 -23.0°
Reaches altitude 10° 14:29:54 10° 289° (WNW) 2,608 8.0 -23.6°
Maximum altitude 14:36:10 84° 202° (SSW) 945 4.8 -25.0°
Enters shadow 14:37:53 52° 120° (ESE) 1,164 5.1 -25.4°
Drops below altitude 10° 14:42:42 10° 114° (ESE) 2,715 - -26.5°
Sets 14:45:25 0° 114° (ESE) 3,702 - -27.1°
